#timestamp,LO_Frequency,Hit,StdDev 
1610485215.6,286046998.6,N
1610485235.5,286047000.9,N
1610485255.3,286047001.1,N
1610485275.1,286047000.8,N
1610485295.9,286046998.9,N
1610485315.7,286046999.0,N
1610485335.5,286046998.5,N
1610485355.4,286046996.5,N
1610485375.2,286046997.1,N
1610485395.1,286046997.1,N
1610485396.0,286046997.1,N
1610485415.8,286046995.0,Y
1610485435.7,286046996.7,P
1610485455.5,286047000.7,N
1610485475.3,286046998.4,N
1610485495.2,286046999.8,N
1610485515.0,286047000.0,N
1610485515.9,286047000.0,N
1610485535.7,286047001.1,N
1610485555.6,286046998.4,N
1610485575.4,286046998.4,N
1610485595.3,286047000.7,N
1610485615.1,286047000.7,N
1610485635.8,286047000.1,N
1610485655.7,286047000.2,N
1610485675.5,286046999.7,N
1610485695.4,286047000.5,N
1610485715.2,286047000.7,N
1610485735.0,286047000.6,N
1610485735.9,286047000.6,N
1610485755.8,286046998.4,N
1610485775.6,286047000.7,N
1610485795.4,286047000.9,N
1610485815.3,286046998.7,N
1610485835.1,286046999.4,N
1610485855.9,286047001.0,N
1610485875.7,286047000.4,N
1610485895.5,286047002.8,N
1610485915.4,286046999.9,N
1610485935.2,286047000.9,N
1610485955.1,286047000.2,N
1610485956.0,286047000.2,N
1610485975.8,286047000.6,N
1610485995.6,286047001.0,N
1610486015.5,286047000.7,N
1610486035.3,286046998.3,N
1610486055.1,286047000.7,N
1610486075.9,286046999.8,N
1610486095.7,286047000.5,N
1610486115.6,286047000.4,N
1610486135.4,286047000.5,N
1610486155.2,286047000.9,N
1610486175.1,286047000.1,N
1610486176.0,286047000.1,N
1610486195.8,286047002.4,N
1610486215.7,286047002.3,N
1610486235.5,286047003.9,Y
1610486255.3,286047004.4,P
1610486275.2,286047004.1,N
1610486295.0,286047006.0,P
1610486295.9,286047006.0,N
1610486315.8,286047005.6,N
1610486335.6,286047003.1,N
1610486355.4,286047003.6,N
1610486375.3,286047003.9,N
1610486395.1,286047003.6,N
1610486415.8,286047001.4,N
1610486435.7,286047003.0,N
1610486455.5,286047007.1,Y
1610486475.4,286047003.2,P
1610486495.2,286047000.1,N
1610486515.0,286046999.0,N
1610486516.0,286046999.0,N
1610486535.8,286046996.8,N
1610486555.6,286046997.2,N
1610486575.5,286046997.3,N
1610486595.3,286046997.1,N
1610486615.2,286046997.2,N
1610486635.9,286046996.6,N
1610486655.7,286046996.5,N
1610486675.6,286046998.9,N
1610486695.4,286046998.9,N
1610486715.2,286046998.2,N
1610486735.1,286046998.4,N
1610486736.0,286046998.4,N
1610486755.8,286046998.2,N
1610486775.7,286047001.0,N
1610486795.5,286047001.1,N
1610486815.3,286047000.7,N
1610486835.2,286047000.4,N
1610486855.0,286046998.1,N
1610486855.9,286046998.1,N
1610486875.7,286046998.8,N
1610486895.6,286047000.9,N
1610486915.4,286047000.7,N
1610486935.3,286047000.7,N
1610486955.1,286047000.6,N
1610486975.8,286046999.0,N
1610486995.7,286046998.7,N
1610487015.5,286046999.3,N
1610487035.4,286046999.0,N
1610487055.2,286046996.6,N
1610487075.0,286046996.5,N
1610487075.9,286046996.5,N
1610487095.8,286046999.5,N
1610487115.6,286046996.5,N
1610487135.4,286046998.3,N
1610487155.3,286046998.4,N
1610487175.1,286047001.1,N
1610487195.9,286046998.4,N
1610487215.7,286046998.9,N
1610487235.5,286046998.2,N
1610487255.4,286046999.0,N
1610487275.2,286046999.0,N
1610487295.1,286046998.8,N
1610487296.0,286046998.8,N
1610487315.8,286046998.6,N
1610487335.6,286046998.3,N
1610487355.5,286046998.7,N
1610487375.3,286047001.2,N
1610487395.1,286046999.3,N
1610487415.9,286046998.8,N
1610487435.7,286046998.7,N
1610487455.6,286046999.4,N
1610487475.4,286046998.8,N
1610487495.2,286046998.9,N
1610487515.1,286046999.5,N
1610487516.0,286046999.5,N
1610487535.8,286046998.9,N
1610487555.6,286046997.0,N
1610487575.5,286046996.6,Y
1610487595.3,286046998.9,P
1610487615.2,286046998.8,P
1610487635.9,286046998.4,P
1610487655.7,286047000.9,Y
1610487675.6,286046999.7,P
1610487695.4,286046999.7,N
1610487715.2,286047000.9,N
1610487735.1,286046998.2,N
1610487736.0,286046998.2,N
1610487755.8,286047001.2,N
1610487775.7,286047000.9,N
1610487795.5,286047000.8,N
1610487815.3,286047001.1,N
1610487835.2,286047000.0,N
1610487855.0,286046998.2,N
1610487855.9,286046998.2,N
1610487875.8,286047001.0,N
1610487895.6,286047000.6,N
1610487915.4,286047000.5,N
1610487935.3,286046999.7,N
1610487955.1,286047001.5,N
1610487975.9,286047000.1,N
1610487995.7,286047000.8,N
1610488015.5,286046998.3,N
1610488035.4,286046998.3,N
1610488055.2,286047000.2,N
1610488075.0,286047000.7,N
1610488075.9,286047000.7,N
1610488095.8,286047001.1,N
1610488115.6,286047002.3,N
1610488135.5,286047000.1,N
1610488155.3,286047001.0,N
1610488175.1,286046999.9,N
1610488195.9,286046999.7,N
1610488215.7,286047000.1,N
1610488235.6,286047001.6,N
1610488255.4,286047004.1,Y
1610488275.2,286047005.7,P
1610488295.1,286047003.6,N
1610488296.0,286047003.6,N
1610488315.8,286047001.6,N
1610488335.7,286047001.4,N
1610488355.5,286047002.0,N
1610488375.3,286047002.1,N
1610488395.2,286047002.2,N
1610488415.0,286047002.6,N
1610488415.9,286047002.6,N
1610488435.8,286046999.8,N
1610488455.6,286047002.8,N
1610488475.4,286047000.5,N
1610488495.3,286046999.8,N
1610488515.1,286046998.3,N
1610488535.9,286047000.8,N
1610488555.7,286046998.1,N
1610488575.5,286046998.1,N
1610488595.4,286047000.2,N
1610488615.2,286047000.4,N
1610488635.1,286047000.0,N
1610488636.0,286047000.0,N
1610488655.8,286047002.8,N
1610488675.7,286047000.9,N
1610488695.5,286047001.4,N
1610488715.3,286047002.6,N
1610488735.2,286047003.1,N
1610488755.0,286047001.6,N
1610488755.9,286047001.6,N
1610488775.8,286047002.5,N
1610488795.6,286047002.7,N
